Location: Rounton
(54.4000°N, 1.3500°W)
Time: 16:22:09
(UTC+00:00)

Tiros 1 - Pass Details

Date: 07 December 2021
Orbit: 629 x 664 km, 48.4° (Epoch: 19 January)

Event Time Altitude Azimuth Distance (km) Brightness Sun altitude
Rises 18:21:24 0° 230° (SW) 2,916 11.5 -21.7°
Reaches altitude 10° 18:23:55 10° 220° (SW) 2,014 10.3 -22.1°
Maximum altitude 18:27:55 29° 160° (SSE) 1,166 8.3 -22.7°
Enters shadow 18:28:00 29° 158° (SSE) 1,167 8.3 -22.7°
